Regional Weather Roundup
Issued by NWS Upton, NY

Current Version | Previous Version | Graphics & Text | Print | Product List | Glossary Off
Versions: 1 2 3 4 5 6 7 8 9 10 11 12 13 14 15 16 17 18 19 20 21 22 23 24 25 26 27 28 29 30 31 32 33 34 35 36 37 38 39 40 41 42 43 44 45 46 47 48 49 50

096
ASUS41 KOKX 280908
RWROKX

REGIONAL WEATHER ROUNDUP
NATIONAL WEATHER SERVICE NEW YORK NY
500 AM EDT FRI APR 28 2017

NOTE: "FAIR" INDICATES FEW OR NO CLOUDS BELOW 12,000 FEET WITH NO
SIGNIFICANT WEATHER AND/OR OBSTRUCTIONS TO VISIBILITY.

NYZ071-072-176-178-NJZ106-104-281000-
NEW YORK CITY METRO AREA

CITY           SKY/WX    TMP DP  RH WIND       PRES   REMARKS
Central Park   FOG       58  57  97 CALM      29.92R VSB 1
Wall St Helipt CLOUDY    57  56  96 N3        29.90R FOG
Bronx Bot Gard   N/A     57  55  94 CALM      29.90S
LaGuardia APRT FOG       56  55  97 NE3       29.89R VSB 1/4
Kennedy INTL   CLOUDY    56  56 100 CALM      29.91R FOG
Breezy Point     N/A     52 N/A N/A N5          N/A
Newark/Liberty FOG       57  57 100 CALM      29.90R VSB 1/2
Teterboro      CLOUDY    59  59 100 CALM      29.89R FOG
$$

NYZ177-179-078>081-281000-
LONG ISLAND NEW YORK

CITY           SKY/WX    TMP DP  RH WIND       PRES   REMARKS
Jones Beach      N/A     54 N/A N/A SW2         N/A
Matinecock PT  NOT AVBL
Farmingdale    CLOUDY    56  56 100 SW5       29.90R FOG
MacArthur/ISP  CLOUDY    57  57 100 S9        29.91R
Shirley        HVY RAIN  56  56 100 S7        29.89F FOG
Mt Sinai Harb    N/A     57 N/A N/A MISG        N/A
Westhampton    CLOUDY    55  54  96 S5        29.92S FOG
East Hampton   FOG       53  52  98 CALM      29.90S VSB 3/4
Montauk          N/A     54  54 100 S6        29.92S
$$

NYZ052-065-067-281000-
HUDSON VALLEY

CITY           SKY/WX    TMP DP  RH WIND       PRES   REMARKS
White Plains   FOG       57  56  96 CALM      29.89S VSB 1/4
Larchmont Harb   N/A     52 N/A N/A NE5         N/A
Croton O-T Hud   N/A     57 N/A N/A MISG        N/A
Newburgh       CLOUDY    59  59 100 CALM      29.91R FOG
Montgomery     CLOUDY    60  58  92 CALM      29.88R
Poughkeepsie   CLOUDY    60  58  92 CALM      29.88S
Albany         CLOUDY    62  57  83 S8        29.87S
$$

NJZ001-105-106-008-010-013-015-019>022-104-281000-
NEW JERSEY

CITY           SKY/WX    TMP DP  RH WIND       PRES   REMARKS
Newark/Liberty FOG       57  57 100 CALM      29.90R VSB 1/2
Teterboro      CLOUDY    59  59 100 CALM      29.89R FOG
Caldwell       CLOUDY    59  57  93 CALM      29.91R FOG
Somerville       N/A     59  57  93 CALM      29.88R FOG
Linden         CLOUDY    57  56  97 CALM      29.90R FOG
Perth Amboy      N/A     54 N/A N/A CALM        N/A
Sussex         CLOUDY    59  58  96 CALM      29.89R
Andover          N/A     56  55  97 CALM      29.90R
Trenton        CLOUDY    59  58  96 N3        29.89R FOG
Millville      LGT RAIN  64  63  96 S3        29.89R
Atlantic City  LGT RAIN  62  58  86 S5        29.90R
Wrightstown    CLOUDY    64  61  91 S7        29.86R
Toms River     MOCLDY    62  60  93 SW3       29.90R
Belmar         CLOUDY    62  60  93 S7        29.91R
$$

PAZ047>061-062-071-281000-
EASTERN PENNSYLVANIA

CITY           SKY/WX    TMP DP  RH WIND       PRES   REMARKS
Philadelphia   MOCLDY    65  62  90 S6        29.89R
Allentown      PTCLDY    59  56  89 E3        29.89R
Scranton       PTCLDY    65  60  84 SW5       29.88R
$$

CTZ002-004>006-009-010-012-RIZ004-006-007-MAZ004-011-015-281000-
SOUTHERN NEW ENGLAND
 IN CT

CITY           SKY/WX    TMP DP  RH WIND       PRES   REMARKS
Bradley INTL   DRZL/FOG  58  58 100 SW8       29.91R VSB 1
Hartford       CLOUDY    59  59 100 CALM      29.90R FOG
Danbury        CLOUDY    56  56 100 CALM      29.91R
Wtrbury/Oxford CLOUDY    55  52  88 CALM      29.92R VSB<1/4
Bridgeport     FOG       54  52  93 NE8       29.88F VSB 1/4
Meriden        FOG       59  58  96 S3        29.90R VSB 1
New Haven      LGT RAIN  54  54 100 E5        29.89S VSB 1/2
Chester        FOG       55  55 100 SE5       29.90S VSB<1/4
Groton         FOG       54  53  97 E3        29.91S VSB 1/4
Wilimantic     FOG       59  58  96 CALM      29.91S VSB 3/4

 IN RI

CITY           SKY/WX    TMP DP  RH WIND       PRES   REMARKS
Providence     FOG       54  54 100 S7        29.93S VSB 1/2
Block Island   FOG       54  53  97 S10       29.93R VSB 1/4
Westerly       FOG       55  55 100 E6        29.92S VSB 1/4
 IN MA

CITY           SKY/WX    TMP DP  RH WIND       PRES   REMARKS
Boston         CLOUDY    54  54 100 NE3       29.93S
Worcester      FOG       56  55  97 S3        29.92R VSB 1/4
Westfield      CLOUDY    58  58 100 SW3       29.91R FOG
Provincetown   FOG       54  53  97 S9        29.96S VSB 3/4
Nantucket      LGT RAIN  51  51 100 S9        29.96S VSB 1/2
$$

ANZ330-335-338-340-345-350-353-355-281000-
COASTAL MARINE OBSERVATIONS


STATION/POSITION TIME  SKY/WX   TEMP    WIND        PRES    VSBY  WAVE
                                AIR SEA DIR/SP/G                  HT/PER
                 (UTC)          (F)     (DEG/KT/KT) (MB)    (MI)  (FT/S)
NY HARB ENTRANCE 0750            52 49  190/  8/ 10 1011.3          4/10
20 S FIRE ISLAND 0850            53 49  200/ 14/ 16 1012.0          5/ 9
GREAT SOUTH BAY  0830            56 57  150/  2/  4   N/A
23 SSW MONTAUK P 0750            51 46              1013.0          6/ 9
15 E BARNEGAT LI 0830               51                N/A           5/10
HUDSON CANYON    0850            54 49  190/ 14/ 14 1013.5          6/10
KINGS POINT      0848            51 50   80/  1/  2 1012.3
EXECUTION ROCKS  NOT AVBL
CENTRAL LI SOUND 0845            47      70/  6/  6   N/A           0
EASTERN LI SOUND NOT AVBL
ROBBINS REEF     0848            56        CALM     1012.6
$$


>>>>>>>>>>>>>>>>>>>>>>>>>>>> KEY <<<<<<<<<<<<<<<<<<<<<<<<<<<
>                                                          <
>     SKY/WX - Sky Condition/Present Weather               <
>     TMP    - Temperature in Fahrenheit                   <
>     DP     - Dew Point in Fahrenheit                     <
>     RH     - Relative Humidity in Percent                <
>     WIND   - Direction (from) and Speed in MPH           <
>     PRES   - Mean Sea Level Pressure (inches of Hg)      <
>     WCI    - Wind Chill Index                            <
>     VSB    - VISIBILITY IN MILES                         <
>     HX     - HEAT INDEX                                  <
>     TC     - TEMPERATURE IN CELSIUS                      <
>     VRB    - VARIABLE WIND DIRECTION                     <
>                                                          <
>>>>>>>>>>>>>>>>>>>>>>>>>>>> KEY <<<<<<<<<<<<<<<<<<<<<<<<<<<




USA.gov is the U.S. government's official web portal to all federal, state and local government web resources and services.